Time,TemperatureF,DewpointF,PressureIn,WindDirection,WindDirectionDegrees,WindSpeedMPH,WindSpeedGustMPH,Humidity,HourlyPrecipIn,Conditions,Clouds,dailyrainin,SoftwareType,DateUTC
2013-01-21 00:00:00,38.2,25.1,30.11,NE,36,0.0,2.0,59,0.00,,,0.14,HR-IXPWINDi_r2_v1.2.,2013-01-21 05:00:00,
2013-01-21 00:05:00,38.2,25.1,30.10,North,355,2.0,4.0,59,0.00,,,0.00,HR-IXPWINDi_r2_v1.2.,2013-01-21 05:05:00,
2013-01-21 00:10:00,38.6,25.1,30.10,NNE,30,1.0,7.0,58,0.00,,,0.00,HR-IXPWINDi_r2_v1.2.,2013-01-21 05:10:00,
2013-01-21 00:15:00,39.0,24.6,30.10,North,355,1.0,7.0,56,0.00,,,0.00,HR-IXPWINDi_r2_v1.2.,2013-01-21 05:15:00,
2013-01-21 00:20:00,39.3,24.0,30.10,NNE,21,1.0,6.0,54,0.00,,,0.00,HR-IXPWINDi_r2_v1.2.,2013-01-21 05:20:00,
2013-01-21 00:25:00,39.3,23.6,30.10,NW,318,0.0,3.0,53,0.00,,,0.00,HR-IXPWINDi_r2_v1.2.,2013-01-21 05:25:00,
2013-01-21 00:31:00,39.4,23.7,30.10,NNW,336,0.0,3.0,53,0.00,,,0.00,HR-IXPWINDi_r2_v1.2.,2013-01-21 05:31:00,
2013-01-21 00:36:00,39.4,23.2,30.10,NW,323,0.0,3.0,52,0.00,,,0.00,HR-IXPWINDi_r2_v1.2.,2013-01-21 05:36:00,
2013-01-21 00:41:00,39.6,23.9,30.09,NW,319,0.0,3.0,53,0.00,,,0.00,HR-IXPWINDi_r2_v1.2.,2013-01-21 05:41:00,
2013-01-21 00:47:00,39.5,23.8,30.09,NW,319,0.0,3.0,53,0.00,,,0.00,HR-IXPWINDi_r2_v1.2.,2013-01-21 05:47:00,
2013-01-21 00:52:00,39.4,23.7,30.09,NW,319,0.0,2.0,53,0.00,,,0.00,HR-IXPWINDi_r2_v1.2.,2013-01-21 05:52:00,
2013-01-21 00:57:00,39.3,23.6,30.10,NW,319,0.0,2.0,53,0.00,,,0.00,HR-IXPWINDi_r2_v1.2.,2013-01-21 05:57:00,
2013-01-21 01:02:00,39.2,23.9,30.10,NW,319,0.0,2.0,54,0.00,,,0.00,HR-IXPWINDi_r2_v1.2.,2013-01-21 06:02:00,
2013-01-21 01:07:00,39.2,23.0,30.10,NW,319,0.0,2.0,52,0.00,,,0.00,HR-IXPWINDi_r2_v1.2.,2013-01-21 06:07:00,
2013-01-21 01:13:00,39.4,23.2,30.10,NW,319,0.0,3.0,52,0.00,,,0.00,HR-IXPWINDi_r2_v1.2.,2013-01-21 06:13:00,
2013-01-21 01:18:00,39.5,24.2,30.10,NW,319,0.0,4.0,54,0.00,,,0.00,HR-IXPWINDi_r2_v1.2.,2013-01-21 06:18:00,
2013-01-21 01:23:00,39.4,23.2,30.10,NW,319,0.0,4.0,52,0.00,,,0.00,HR-IXPWINDi_r2_v1.2.,2013-01-21 06:23:00,
2013-01-21 01:29:00,39.2,23.0,30.10,NW,319,0.0,2.0,52,0.00,,,0.00,HR-IXPWINDi_r2_v1.2.,2013-01-21 06:29:00,
2013-01-21 01:34:00,39.1,24.3,30.10,NW,319,0.0,1.0,55,0.00,,,0.00,HR-IXPWINDi_r2_v1.2.,2013-01-21 06:34:00,
2013-01-21 01:39:00,38.9,22.8,30.10,NW,319,0.0,1.0,52,0.00,,,0.00,HR-IXPWINDi_r2_v1.2.,2013-01-21 06:39:00,
2013-01-21 01:44:00,38.6,22.9,30.10,NW,319,0.0,1.0,53,0.00,,,0.00,HR-IXPWINDi_r2_v1.2.,2013-01-21 06:44:00,
2013-01-21 01:49:00,38.4,23.2,30.11,NW,321,1.0,1.0,54,0.00,,,0.00,HR-IXPWINDi_r2_v1.2.,2013-01-21 06:49:00,
2013-01-21 01:55:00,38.1,23.4,30.11,NW,321,0.0,2.0,55,0.00,,,0.00,HR-IXPWINDi_r2_v1.2.,2013-01-21 06:55:00,
2013-01-21 02:00:00,37.9,23.6,30.11,NW,321,0.0,2.0,56,0.00,,,0.00,HR-IXPWINDi_r2_v1.2.,2013-01-21 07:00:00,
2013-01-21 02:05:00,37.7,24.2,30.11,NW,321,1.0,1.0,58,0.00,,,0.00,HR-IXPWINDi_r2_v1.2.,2013-01-21 07:05:00,
2013-01-21 02:10:00,37.7,23.4,30.12,NW,321,0.0,1.0,56,0.00,,,0.00,HR-IXPWINDi_r2_v1.2.,2013-01-21 07:10:00,
2013-01-21 02:15:00,37.5,24.1,30.12,NNW,346,0.0,3.0,58,0.00,,,0.00,HR-IXPWINDi_r2_v1.2.,2013-01-21 07:15:00,
2013-01-21 02:20:00,37.5,22.8,30.12,NNW,346,1.0,3.0,55,0.00,,,0.00,HR-IXPWINDi_r2_v1.2.,2013-01-21 07:20:00,
2013-01-21 02:26:00,37.6,22.5,30.12,NNW,346,0.0,2.0,54,0.00,,,0.00,HR-IXPWINDi_r2_v1.2.,2013-01-21 07:26:00,
2013-01-21 02:31:00,37.7,23.0,30.12,NNW,345,0.0,3.0,55,0.00,,,0.00,HR-IXPWINDi_r2_v1.2.,2013-01-21 07:31:00,
2013-01-21 02:36:00,37.7,23.0,30.12,NNW,345,0.0,3.0,55,0.00,,,0.00,HR-IXPWINDi_r2_v1.2.,2013-01-21 07:36:00,
2013-01-21 02:41:00,37.7,22.1,30.12,North,350,0.0,2.0,53,0.00,,,0.00,HR-IXPWINDi_r2_v1.2.,2013-01-21 07:41:00,
2013-01-21 02:47:00,37.8,22.6,30.12,NW,317,0.0,3.0,54,0.00,,,0.00,HR-IXPWINDi_r2_v1.2.,2013-01-21 07:47:00,
2013-01-21 02:52:00,37.8,22.2,30.12,NW,311,0.0,3.0,53,0.00,,,0.00,HR-IXPWINDi_r2_v1.2.,2013-01-21 07:52:00,
2013-01-21 02:57:00,37.7,22.5,30.12,NW,310,0.0,3.0,54,0.00,,,0.00,HR-IXPWINDi_r2_v1.2.,2013-01-21 07:57:00,
2013-01-21 03:02:00,37.6,22.0,30.12,NW,310,0.0,3.0,53,0.00,,,0.00,HR-IXPWINDi_r2_v1.2.,2013-01-21 08:02:00,
2013-01-21 03:07:00,37.5,24.5,30.12,NW,310,2.0,3.0,59,0.00,,,0.00,HR-IXPWINDi_r2_v1.2.,2013-01-21 08:07:00,
2013-01-21 03:13:00,37.3,23.0,30.12,NW,321,1.0,3.0,56,0.00,,,0.00,HR-IXPWINDi_r2_v1.2.,2013-01-21 08:13:00,
2013-01-21 03:18:00,36.9,22.7,30.12,NW,321,0.0,3.0,56,0.00,,,0.00,HR-IXPWINDi_r2_v1.2.,2013-01-21 08:18:00,
2013-01-21 03:23:00,36.6,22.0,30.12,NW,321,0.0,3.0,55,0.00,,,0.00,HR-IXPWINDi_r2_v1.2.,2013-01-21 08:23:00,
2013-01-21 03:28:00,36.7,21.6,30.12,NW,318,0.0,3.0,54,0.00,,,0.00,HR-IXPWINDi_r2_v1.2.,2013-01-21 08:28:00,
2013-01-21 03:33:00,36.7,22.9,30.12,NW,319,2.0,3.0,57,0.00,,,0.00,HR-IXPWINDi_r2_v1.2.,2013-01-21 08:33:00,
2013-01-21 03:39:00,36.6,22.4,30.11,NE,51,0.0,4.0,56,0.00,,,0.00,HR-IXPWINDi_r2_v1.2.,2013-01-21 08:39:00,
2013-01-21 03:44:00,36.3,22.9,30.11,NW,310,1.0,4.0,58,0.00,,,0.00,HR-IXPWINDi_r2_v1.2.,2013-01-21 08:44:00,
2013-01-21 03:49:00,36.2,22.8,30.11,NW,316,0.0,3.0,58,0.00,,,0.00,HR-IXPWINDi_r2_v1.2.,2013-01-21 08:49:00,
2013-01-21 03:54:00,36.0,21.4,30.11,NW,316,0.0,3.0,55,0.00,,,0.00,HR-IXPWINDi_r2_v1.2.,2013-01-21 08:54:00,
2013-01-21 04:00:00,35.9,21.7,30.10,NW,316,1.0,3.0,56,0.00,,,0.00,HR-IXPWINDi_r2_v1.2.,2013-01-21 09:00:00,
2013-01-21 04:05:00,35.7,22.0,30.10,NW,316,1.0,3.0,57,0.00,,,0.00,HR-IXPWINDi_r2_v1.2.,2013-01-21 09:05:00,
2013-01-21 04:10:00,35.6,21.9,30.10,NW,316,0.0,3.0,57,0.00,,,0.00,HR-IXPWINDi_r2_v1.2.,2013-01-21 09:10:00,
2013-01-21 04:15:00,35.6,22.7,30.10,NW,320,0.0,3.0,59,0.00,,,0.00,HR-IXPWINDi_r2_v1.2.,2013-01-21 09:15:00,
2013-01-21 04:20:00,35.7,22.4,30.10,NW,313,0.0,5.0,58,0.00,,,0.00,HR-IXPWINDi_r2_v1.2.,2013-01-21 09:20:00,
2013-01-21 04:26:00,35.9,22.1,30.10,WNW,302,2.0,9.0,57,0.00,,,0.00,HR-IXPWINDi_r2_v1.2.,2013-01-21 09:26:00,
2013-01-21 04:31:00,36.0,22.7,30.10,NW,304,2.0,9.0,58,0.00,,,0.00,HR-IXPWINDi_r2_v1.2.,2013-01-21 09:31:00,
2013-01-21 04:36:00,36.0,22.7,30.10,NW,304,1.0,3.0,58,0.00,,,0.00,HR-IXPWINDi_r2_v1.2.,2013-01-21 09:36:00,
2013-01-21 04:41:00,35.6,22.3,30.09,NW,315,3.0,3.0,58,0.00,,,0.00,HR-IXPWINDi_r2_v1.2.,2013-01-21 09:41:00,
2013-01-21 04:46:00,35.5,22.2,30.09,NW,319,0.0,3.0,58,0.00,,,0.00,HR-IXPWINDi_r2_v1.2.,2013-01-21 09:46:00,
2013-01-21 04:51:00,35.3,23.2,30.09,North,355,2.0,3.0,61,0.00,,,0.00,HR-IXPWINDi_r2_v1.2.,2013-01-21 09:51:00,
2013-01-21 04:56:00,35.1,22.2,30.09,WNW,302,1.0,3.0,59,0.00,,,0.00,HR-IXPWINDi_r2_v1.2.,2013-01-21 09:56:00,
2013-01-21 05:02:00,34.9,23.2,30.09,NNW,348,0.0,4.0,62,0.00,,,0.00,HR-IXPWINDi_r2_v1.2.,2013-01-21 10:02:00,
2013-01-21 05:07:00,35.0,21.7,30.09,North,360,0.0,4.0,58,0.00,,,0.00,HR-IXPWINDi_r2_v1.2.,2013-01-21 10:07:00,
2013-01-21 05:12:00,35.4,21.3,30.08,NW,323,0.0,3.0,56,0.00,,,0.00,HR-IXPWINDi_r2_v1.2.,2013-01-21 10:12:00,
2013-01-21 05:17:00,35.6,21.9,30.08,NNW,336,2.0,3.0,57,0.00,,,0.00,HR-IXPWINDi_r2_v1.2.,2013-01-21 10:17:00,
2013-01-21 05:23:00,35.8,21.6,30.08,NNW,340,0.0,2.0,56,0.00,,,0.00,HR-IXPWINDi_r2_v1.2.,2013-01-21 10:23:00,
2013-01-21 05:28:00,36.0,21.8,30.08,NNW,342,0.0,3.0,56,0.00,,,0.00,HR-IXPWINDi_r2_v1.2.,2013-01-21 10:28:00,
2013-01-21 05:33:00,35.8,22.1,30.08,North,355,0.0,3.0,57,0.00,,,0.00,HR-IXPWINDi_r2_v1.2.,2013-01-21 10:33:00,
2013-01-21 05:38:00,35.7,21.1,30.08,NW,304,0.0,4.0,55,0.00,,,0.00,HR-IXPWINDi_r2_v1.2.,2013-01-21 10:38:00,
2013-01-21 05:43:00,35.7,22.0,30.08,NW,311,1.0,4.0,57,0.00,,,0.00,HR-IXPWINDi_r2_v1.2.,2013-01-21 10:43:00,
2013-01-21 05:48:00,35.6,22.3,30.08,NW,311,0.0,4.0,58,0.00,,,0.00,HR-IXPWINDi_r2_v1.2.,2013-01-21 10:48:00,
2013-01-21 05:53:00,35.6,21.0,30.08,NNW,329,1.0,3.0,55,0.00,,,0.00,HR-IXPWINDi_r2_v1.2.,2013-01-21 10:53:00,
2013-01-21 05:58:00,35.8,21.6,30.08,NW,308,0.0,6.0,56,0.00,,,0.00,HR-IXPWINDi_r2_v1.2.,2013-01-21 10:58:00,
2013-01-21 06:03:00,35.9,21.3,30.08,NW,308,0.0,6.0,55,0.00,,,0.00,HR-IXPWINDi_r2_v1.2.,2013-01-21 11:03:00,
2013-01-21 06:08:00,35.8,21.6,30.08,North,350,0.0,3.0,56,0.00,,,0.00,HR-IXPWINDi_r2_v1.2.,2013-01-21 11:08:00,
2013-01-21 06:14:00,35.8,21.6,30.08,NW,320,0.0,3.0,56,0.00,,,0.00,HR-IXPWINDi_r2_v1.2.,2013-01-21 11:14:00,
2013-01-21 06:19:00,35.8,21.6,30.08,NW,319,0.0,4.0,56,0.00,,,0.00,HR-IXPWINDi_r2_v1.2.,2013-01-21 11:19:00,
2013-01-21 06:24:00,35.6,21.5,30.08,NW,319,0.0,4.0,56,0.00,,,0.00,HR-IXPWINDi_r2_v1.2.,2013-01-21 11:24:00,
2013-01-21 06:29:00,35.4,21.7,30.08,NW,319,0.0,4.0,57,0.00,,,0.00,HR-IXPWINDi_r2_v1.2.,2013-01-21 11:29:00,
2013-01-21 06:34:00,35.1,21.8,30.08,NNW,330,1.0,3.0,58,0.00,,,0.00,HR-IXPWINDi_r2_v1.2.,2013-01-21 11:34:00,
2013-01-21 06:40:00,34.8,21.1,30.08,NNW,331,0.0,2.0,57,0.00,,,0.00,HR-IXPWINDi_r2_v1.2.,2013-01-21 11:40:00,
2013-01-21 06:45:00,34.8,20.7,30.07,West,265,0.0,2.0,56,0.00,,,0.00,HR-IXPWINDi_r2_v1.2.,2013-01-21 11:45:00,
2013-01-21 06:50:00,34.7,21.8,30.08,West,265,0.0,2.0,59,0.00,,,0.00,HR-IXPWINDi_r2_v1.2.,2013-01-21 11:50:00,
2013-01-21 06:55:00,34.5,22.4,30.08,West,265,0.0,1.0,61,0.00,,,0.00,HR-IXPWINDi_r2_v1.2.,2013-01-21 11:55:00,
2013-01-21 07:00:00,34.3,22.2,30.08,West,265,0.0,1.0,61,0.00,,,0.00,HR-IXPWINDi_r2_v1.2.,2013-01-21 12:00:00,
2013-01-21 07:06:00,33.9,22.3,30.08,West,265,0.0,1.0,62,0.00,,,0.00,HR-IXPWINDi_r2_v1.2.,2013-01-21 12:06:00,
2013-01-21 07:11:00,33.8,22.5,30.08,West,265,0.0,2.0,63,0.00,,,0.00,HR-IXPWINDi_r2_v1.2.,2013-01-21 12:11:00,
2013-01-21 07:16:00,33.6,22.7,30.07,WNW,303,2.0,3.0,64,0.00,,,0.00,HR-IXPWINDi_r2_v1.2.,2013-01-21 12:16:00,
2013-01-21 07:21:00,33.5,22.3,30.08,NE,35,0.0,3.0,63,0.00,,,0.00,HR-IXPWINDi_r2_v1.2.,2013-01-21 12:21:00,
2013-01-21 07:26:00,33.3,22.4,30.07,NNW,327,1.0,3.0,64,0.00,,,0.00,HR-IXPWINDi_r2_v1.2.,2013-01-21 12:26:00,
2013-01-21 07:31:00,33.0,22.5,30.08,NNW,327,0.0,3.0,65,0.00,,,0.00,HR-IXPWINDi_r2_v1.2.,2013-01-21 12:31:00,
2013-01-21 07:37:00,33.1,22.2,30.07,NW,321,0.0,2.0,64,0.00,,,0.00,HR-IXPWINDi_r2_v1.2.,2013-01-21 12:37:00,
2013-01-21 07:42:00,33.2,22.0,30.07,WNW,294,0.0,2.0,63,0.00,,,0.00,HR-IXPWINDi_r2_v1.2.,2013-01-21 12:42:00,
2013-01-21 07:47:00,33.6,22.3,30.07,SSW,198,0.0,3.0,63,0.00,,,0.00,HR-IXPWINDi_r2_v1.2.,2013-01-21 12:47:00,
2013-01-21 07:52:00,33.9,22.3,30.07,NW,320,0.0,4.0,62,0.00,,,0.00,HR-IXPWINDi_r2_v1.2.,2013-01-21 12:52:00,
2013-01-21 07:57:00,34.1,22.4,30.07,NW,320,0.0,4.0,62,0.00,,,0.00,HR-IXPWINDi_r2_v1.2.,2013-01-21 12:57:00,
2013-01-21 08:02:00,34.2,22.9,30.07,WNW,292,2.0,3.0,63,0.00,,,0.00,HR-IXPWINDi_r2_v1.2.,2013-01-21 13:02:00,
2013-01-21 08:07:00,34.3,22.6,30.07,NW,308,0.0,3.0,62,0.00,,,0.00,HR-IXPWINDi_r2_v1.2.,2013-01-21 13:07:00,
2013-01-21 08:12:00,34.7,22.2,30.07,West,265,0.0,4.0,60,0.00,,,0.00,HR-IXPWINDi_r2_v1.2.,2013-01-21 13:12:00,
2013-01-21 08:18:00,35.2,22.7,30.07,West,265,0.0,4.0,60,0.00,,,0.00,HR-IXPWINDi_r2_v1.2.,2013-01-21 13:18:00,
2013-01-21 08:23:00,35.5,22.6,30.07,West,264,0.0,2.0,59,0.00,,,0.00,HR-IXPWINDi_r2_v1.2.,2013-01-21 13:23:00,
2013-01-21 08:28:00,35.6,23.1,30.07,West,264,2.0,2.0,60,0.00,,,0.00,HR-IXPWINDi_r2_v1.2.,2013-01-21 13:28:00,
2013-01-21 08:33:00,35.4,23.3,30.08,West,263,0.0,2.0,61,0.00,,,0.00,HR-IXPWINDi_r2_v1.2.,2013-01-21 13:33:00,
2013-01-21 08:39:00,35.1,23.4,30.08,West,263,0.0,2.0,62,0.00,,,0.00,HR-IXPWINDi_r2_v1.2.,2013-01-21 13:39:00,
2013-01-21 08:44:00,34.8,23.9,30.08,East,99,2.0,2.0,64,0.00,,,0.00,HR-IXPWINDi_r2_v1.2.,2013-01-21 13:44:00,
2013-01-21 08:49:00,34.8,23.9,30.08,ESE,111,0.0,3.0,64,0.00,,,0.00,HR-IXPWINDi_r2_v1.2.,2013-01-21 13:49:00,
2013-01-21 08:54:00,35.0,23.3,30.08,ESE,113,0.0,5.0,62,0.00,,,0.00,HR-IXPWINDi_r2_v1.2.,2013-01-21 13:54:00,
2013-01-21 08:59:00,35.2,24.2,30.08,ESE,109,1.0,5.0,64,0.00,,,0.00,HR-IXPWINDi_r2_v1.2.,2013-01-21 13:59:00,
2013-01-21 09:04:00,35.5,25.3,30.08,East,101,2.0,4.0,66,0.00,,,0.00,HR-IXPWINDi_r2_v1.2.,2013-01-21 14:04:00,
2013-01-21 09:09:00,35.5,24.9,30.08,WNW,296,0.0,5.0,65,0.00,,,0.00,HR-IXPWINDi_r2_v1.2.,2013-01-21 14:09:00,
2013-01-21 09:14:00,35.3,25.1,30.08,WNW,303,0.0,5.0,66,0.00,,,0.00,HR-IXPWINDi_r2_v1.2.,2013-01-21 14:14:00,
2013-01-21 09:19:00,36.0,24.2,30.08,ENE,57,0.0,4.0,62,0.00,,,0.00,HR-IXPWINDi_r2_v1.2.,2013-01-21 14:19:00,
2013-01-21 09:24:00,36.8,25.4,30.08,NW,315,1.0,8.0,63,0.00,,,0.00,HR-IXPWINDi_r2_v1.2.,2013-01-21 14:24:00,
2013-01-21 09:30:00,37.0,25.2,30.08,NNE,17,0.0,8.0,62,0.00,,,0.00,HR-IXPWINDi_r2_v1.2.,2013-01-21 14:30:00,
2013-01-21 09:35:00,37.1,24.5,30.08,SSE,161,9.0,9.0,60,0.00,,,0.00,HR-IXPWINDi_r2_v1.2.,2013-01-21 14:35:00,
2013-01-21 09:40:00,38.0,24.9,30.08,NNW,342,5.0,9.0,59,0.00,,,0.00,HR-IXPWINDi_r2_v1.2.,2013-01-21 14:40:00,
2013-01-21 09:45:00,39.1,23.9,30.09,NW,322,1.0,9.0,54,0.00,,,0.00,HR-IXPWINDi_r2_v1.2.,2013-01-21 14:45:00,
2013-01-21 09:51:00,39.8,24.1,30.08,NNE,14,0.0,5.0,53,0.00,,,0.00,HR-IXPWINDi_r2_v1.2.,2013-01-21 14:51:00,
2013-01-21 09:56:00,40.4,24.6,30.09,NW,322,1.0,5.0,53,0.00,,,0.00,HR-IXPWINDi_r2_v1.2.,2013-01-21 14:56:00,
2013-01-21 10:01:00,40.8,24.5,30.09,SSW,202,3.0,5.0,52,0.00,,,0.00,HR-IXPWINDi_r2_v1.2.,2013-01-21 15:01:00,
2013-01-21 10:06:00,41.2,24.9,30.08,NW,308,4.0,7.0,52,0.00,,,0.00,HR-IXPWINDi_r2_v1.2.,2013-01-21 15:06:00,
2013-01-21 10:11:00,41.6,24.8,30.09,SW,233,3.0,7.0,51,0.00,,,0.00,HR-IXPWINDi_r2_v1.2.,2013-01-21 15:11:00,
2013-01-21 10:16:00,42.0,24.7,30.08,WSW,240,1.0,7.0,50,0.00,,,0.00,HR-IXPWINDi_r2_v1.2.,2013-01-21 15:16:00,
2013-01-21 10:21:00,42.4,24.6,30.08,NE,34,0.0,7.0,49,0.00,,,0.00,HR-IXPWINDi_r2_v1.2.,2013-01-21 15:21:00,
2013-01-21 10:26:00,42.8,25.4,30.08,NE,40,0.0,7.0,50,0.00,,,0.00,HR-IXPWINDi_r2_v1.2.,2013-01-21 15:26:00,
2013-01-21 10:32:00,42.9,26.0,30.08,NNW,333,0.0,7.0,51,0.00,,,0.00,HR-IXPWINDi_r2_v1.2.,2013-01-21 15:32:00,
2013-01-21 10:37:00,42.9,25.5,30.08,NNE,13,0.0,11.0,50,0.00,,,0.00,HR-IXPWINDi_r2_v1.2.,2013-01-21 15:37:00,
2013-01-21 10:42:00,43.1,25.7,30.08,NW,325,3.0,11.0,50,0.00,,,0.00,HR-IXPWINDi_r2_v1.2.,2013-01-21 15:42:00,
2013-01-21 10:47:00,43.3,25.4,30.08,ESE,122,2.0,7.0,49,0.00,,,0.00,HR-IXPWINDi_r2_v1.2.,2013-01-21 15:47:00,
2013-01-21 10:52:00,43.5,26.6,30.07,North,11,0.0,7.0,51,0.00,,,0.00,HR-IXPWINDi_r2_v1.2.,2013-01-21 15:52:00,
2013-01-21 10:58:00,43.6,25.7,30.07,WNW,296,3.0,6.0,49,0.00,,,0.00,HR-IXPWINDi_r2_v1.2.,2013-01-21 15:58:00,
2013-01-21 11:03:00,43.9,26.0,30.07,NW,325,2.0,6.0,49,0.00,,,0.00,HR-IXPWINDi_r2_v1.2.,2013-01-21 16:03:00,
2013-01-21 11:08:00,44.3,25.8,30.06,North,5,1.0,6.0,48,0.00,,,0.00,HR-IXPWINDi_r2_v1.2.,2013-01-21 16:08:00,
2013-01-21 11:13:00,44.4,25.9,30.06,East,96,0.0,6.0,48,0.00,,,0.00,HR-IXPWINDi_r2_v1.2.,2013-01-21 16:13:00,
2013-01-21 11:18:00,44.6,25.1,30.05,West,265,0.0,4.0,46,0.00,,,0.00,HR-IXPWINDi_r2_v1.2.,2013-01-21 16:18:00,
2013-01-21 11:24:00,44.7,25.7,30.05,NW,326,0.0,6.0,47,0.00,,,0.00,HR-IXPWINDi_r2_v1.2.,2013-01-21 16:24:00,
2013-01-21 11:29:00,44.9,26.9,30.05,NW,308,0.0,6.0,49,0.00,,,0.00,HR-IXPWINDi_r2_v1.2.,2013-01-21 16:29:00,
2013-01-21 11:34:00,45.1,26.6,30.04,East,79,5.0,7.0,48,0.00,,,0.00,HR-IXPWINDi_r2_v1.2.,2013-01-21 16:34:00,
2013-01-21 11:39:00,45.2,25.6,30.03,ENE,67,1.0,7.0,46,0.00,,,0.00,HR-IXPWINDi_r2_v1.2.,2013-01-21 16:39:00,
2013-01-21 11:44:00,45.6,25.5,30.02,NNW,329,2.0,5.0,45,0.00,,,0.00,HR-IXPWINDi_r2_v1.2.,2013-01-21 16:44:00,
2013-01-21 11:50:00,45.8,26.7,30.02,WNW,282,3.0,8.0,47,0.00,,,0.00,HR-IXPWINDi_r2_v1.2.,2013-01-21 16:50:00,
2013-01-21 11:55:00,45.8,26.7,30.02,NNW,328,1.0,8.0,47,0.00,,,0.00,HR-IXPWINDi_r2_v1.2.,2013-01-21 16:55:00,
2013-01-21 12:00:00,46.0,26.4,30.01,NNW,337,2.0,8.0,46,0.00,,,0.00,HR-IXPWINDi_r2_v1.2.,2013-01-21 17:00:00,
2013-01-21 12:05:00,46.1,26.5,30.01,NNW,335,9.0,10.0,46,0.00,,,0.00,HR-IXPWINDi_r2_v1.2.,2013-01-21 17:05:00,
2013-01-21 12:11:00,46.4,26.7,30.00,NW,309,4.0,10.0,46,0.00,,,0.00,HR-IXPWINDi_r2_v1.2.,2013-01-21 17:11:00,
2013-01-21 12:16:00,46.6,26.9,30.00,NW,307,3.0,9.0,46,0.00,,,0.00,HR-IXPWINDi_r2_v1.2.,2013-01-21 17:16:00,
2013-01-21 12:21:00,47.0,26.7,30.00,NW,323,1.0,7.0,45,0.00,,,0.00,HR-IXPWINDi_r2_v1.2.,2013-01-21 17:21:00,
2013-01-21 12:26:00,47.4,26.0,30.00,NW,321,4.0,7.0,43,0.00,,,0.00,HR-IXPWINDi_r2_v1.2.,2013-01-21 17:26:00,
2013-01-21 12:31:00,47.9,25.3,29.99,ESE,117,2.0,8.0,41,0.00,,,0.00,HR-IXPWINDi_r2_v1.2.,2013-01-21 17:31:00,
2013-01-21 12:37:00,48.1,24.3,29.98,SSE,158,7.0,8.0,39,0.00,,,0.00,HR-IXPWINDi_r2_v1.2.,2013-01-21 17:37:00,
2013-01-21 12:42:00,48.2,23.8,29.99,ENE,65,2.0,7.0,38,0.00,,,0.00,HR-IXPWINDi_r2_v1.2.,2013-01-21 17:42:00,
2013-01-21 12:47:00,48.1,22.4,29.98,NW,311,7.0,15.0,36,0.00,,,0.00,HR-IXPWINDi_r2_v1.2.,2013-01-21 17:47:00,
2013-01-21 12:52:00,48.2,20.4,29.97,WNW,297,2.0,15.0,33,0.00,,,0.00,HR-IXPWINDi_r2_v1.2.,2013-01-21 17:52:00,
2013-01-21 12:57:00,48.5,21.4,29.97,SW,222,4.0,13.0,34,0.00,,,0.00,HR-IXPWINDi_r2_v1.2.,2013-01-21 17:57:00,
2013-01-21 13:02:00,48.4,20.6,29.96,ESE,116,2.0,13.0,33,0.00,,,0.00,HR-IXPWINDi_r2_v1.2.,2013-01-21 18:02:00,
2013-01-21 13:08:00,48.3,20.5,29.95,NW,313,9.0,13.0,33,0.00,,,0.00,HR-IXPWINDi_r2_v1.2.,2013-01-21 18:08:00,
2013-01-21 13:13:00,48.3,20.5,29.95,North,10,6.0,13.0,33,0.00,,,0.00,HR-IXPWINDi_r2_v1.2.,2013-01-21 18:13:00,
2013-01-21 13:18:00,48.5,22.1,29.95,West,279,2.0,11.0,35,0.00,,,0.00,HR-IXPWINDi_r2_v1.2.,2013-01-21 18:18:00,
2013-01-21 13:23:00,48.7,22.3,29.95,SW,221,2.0,10.0,35,0.00,,,0.00,HR-IXPWINDi_r2_v1.2.,2013-01-21 18:23:00,
2013-01-21 13:29:00,48.8,21.7,29.94,North,350,4.0,8.0,34,0.00,,,0.00,HR-IXPWINDi_r2_v1.2.,2013-01-21 18:29:00,
2013-01-21 13:34:00,49.0,19.7,29.94,North,355,3.0,9.0,31,0.00,,,0.00,HR-IXPWINDi_r2_v1.2.,2013-01-21 18:34:00,
2013-01-21 13:39:00,48.9,21.1,29.94,North,5,3.0,10.0,33,0.00,,,0.00,HR-IXPWINDi_r2_v1.2.,2013-01-21 18:39:00,
2013-01-21 13:44:00,48.9,21.1,29.93,NNW,340,5.0,14.0,33,0.00,,,0.00,HR-IXPWINDi_r2_v1.2.,2013-01-21 18:44:00,
2013-01-21 13:49:00,48.7,20.2,29.93,North,355,4.0,14.0,32,0.00,,,0.00,HR-IXPWINDi_r2_v1.2.,2013-01-21 18:49:00,
2013-01-21 13:54:00,48.6,20.1,29.93,NW,307,6.0,10.0,32,0.00,,,0.00,HR-IXPWINDi_r2_v1.2.,2013-01-21 18:54:00,
2013-01-21 14:00:00,48.6,21.5,29.93,SSW,199,4.0,12.0,34,0.00,,,0.00,HR-IXPWINDi_r2_v1.2.,2013-01-21 19:00:00,
2013-01-21 14:05:00,48.4,21.3,29.94,ENE,76,3.0,13.0,34,0.00,,,0.00,HR-IXPWINDi_r2_v1.2.,2013-01-21 19:05:00,
2013-01-21 14:10:00,48.5,21.4,29.93,WNW,303,6.0,13.0,34,0.00,,,0.00,HR-IXPWINDi_r2_v1.2.,2013-01-21 19:10:00,
2013-01-21 14:16:00,48.4,22.0,29.93,North,11,2.0,15.0,35,0.00,,,0.00,HR-IXPWINDi_r2_v1.2.,2013-01-21 19:16:00,
2013-01-21 14:21:00,48.1,23.1,29.93,NNW,340,2.0,15.0,37,0.00,,,0.00,HR-IXPWINDi_r2_v1.2.,2013-01-21 19:21:00,
2013-01-21 14:26:00,47.9,22.9,29.92,NW,306,3.0,9.0,37,0.00,,,0.00,HR-IXPWINDi_r2_v1.2.,2013-01-21 19:26:00,
2013-01-21 14:31:00,47.7,23.9,29.92,WNW,287,5.0,10.0,39,0.00,,,0.00,HR-IXPWINDi_r2_v1.2.,2013-01-21 19:31:00,
2013-01-21 14:36:00,47.8,23.4,29.92,NW,313,5.0,12.0,38,0.00,,,0.00,HR-IXPWINDi_r2_v1.2.,2013-01-21 19:36:00,
2013-01-21 14:41:00,47.8,24.0,29.91,NW,324,2.0,12.0,39,0.00,,,0.00,HR-IXPWINDi_r2_v1.2.,2013-01-21 19:41:00,
2013-01-21 14:47:00,47.9,24.1,29.91,West,281,7.0,10.0,39,0.00,,,0.00,HR-IXPWINDi_r2_v1.2.,2013-01-21 19:47:00,
2013-01-21 14:52:00,47.7,24.5,29.91,WNW,298,1.0,12.0,40,0.00,,,0.00,HR-IXPWINDi_r2_v1.2.,2013-01-21 19:52:00,
2013-01-21 14:57:00,47.6,25.0,29.90,NW,320,6.0,12.0,41,0.00,,,0.00,HR-IXPWINDi_r2_v1.2.,2013-01-21 19:57:00,
2013-01-21 15:03:00,47.6,24.5,29.90,SSW,213,4.0,11.0,40,0.00,,,0.00,HR-IXPWINDi_r2_v1.2.,2013-01-21 20:03:00,
2013-01-21 15:08:00,47.6,25.0,29.91,East,98,2.0,11.0,41,0.00,,,0.00,HR-IXPWINDi_r2_v1.2.,2013-01-21 20:08:00,
2013-01-21 15:13:00,47.6,24.5,29.91,NNE,31,1.0,8.0,40,0.00,,,0.00,HR-IXPWINDi_r2_v1.2.,2013-01-21 20:13:00,
2013-01-21 15:18:00,47.5,25.0,29.90,ESE,102,2.0,18.0,41,0.00,,,0.00,HR-IXPWINDi_r2_v1.2.,2013-01-21 20:18:00,
2013-01-21 15:23:00,47.3,25.4,29.90,NE,38,3.0,18.0,42,0.00,,,0.00,HR-IXPWINDi_r2_v1.2.,2013-01-21 20:23:00,
2013-01-21 15:29:00,47.3,25.9,29.91,North,355,2.0,10.0,43,0.00,,,0.00,HR-IXPWINDi_r2_v1.2.,2013-01-21 20:29:00,
2013-01-21 15:34:00,47.3,24.8,29.91,NNW,333,7.0,9.0,41,0.00,,,0.00,HR-IXPWINDi_r2_v1.2.,2013-01-21 20:34:00,
2013-01-21 15:39:00,47.1,24.0,29.91,NW,315,0.0,15.0,40,0.00,,,0.00,HR-IXPWINDi_r2_v1.2.,2013-01-21 20:39:00,
2013-01-21 15:44:00,46.9,25.0,29.91,NNE,28,1.0,15.0,42,0.00,,,0.00,HR-IXPWINDi_r2_v1.2.,2013-01-21 20:44:00,
2013-01-21 15:49:00,46.7,24.8,29.91,ENE,65,2.0,13.0,42,0.00,,,0.00,HR-IXPWINDi_r2_v1.2.,2013-01-21 20:49:00,
2013-01-21 15:55:00,46.6,25.8,29.91,NW,313,1.0,13.0,44,0.00,,,0.00,HR-IXPWINDi_r2_v1.2.,2013-01-21 20:55:00,
2013-01-21 16:00:00,46.4,25.1,29.91,NNW,346,3.0,10.0,43,0.00,,,0.00,HR-IXPWINDi_r2_v1.2.,2013-01-21 21:00:00,
2013-01-21 16:05:00,46.2,24.9,29.90,WNW,302,1.0,9.0,43,0.00,,,0.00,HR-IXPWINDi_r2_v1.2.,2013-01-21 21:05:00,
2013-01-21 16:10:00,46.0,25.3,29.90,NW,309,0.0,8.0,44,0.00,,,0.00,HR-IXPWINDi_r2_v1.2.,2013-01-21 21:10:00,
2013-01-21 16:15:00,45.9,24.7,29.90,East,93,2.0,8.0,43,0.00,,,0.00,HR-IXPWINDi_r2_v1.2.,2013-01-21 21:15:00,
2013-01-21 16:20:00,45.8,25.7,29.91,NNW,334,7.0,9.0,45,0.00,,,0.00,HR-IXPWINDi_r2_v1.2.,2013-01-21 21:20:00,
2013-01-21 16:25:00,45.6,24.9,29.91,NW,317,3.0,15.0,44,0.00,,,0.00,HR-IXPWINDi_r2_v1.2.,2013-01-21 21:25:00,
2013-01-21 16:31:00,45.5,24.8,29.91,SE,130,1.0,15.0,44,0.00,,,0.00,HR-IXPWINDi_r2_v1.2.,2013-01-21 21:31:00,
2013-01-21 16:36:00,45.3,25.2,29.91,SSE,160,5.0,10.0,45,0.00,,,0.00,HR-IXPWINDi_r2_v1.2.,2013-01-21 21:36:00,
2013-01-21 16:41:00,45.0,24.4,29.91,SSW,211,0.0,10.0,44,0.00,,,0.00,HR-IXPWINDi_r2_v1.2.,2013-01-21 21:41:00,
2013-01-21 16:46:00,44.8,24.7,29.92,NW,320,3.0,6.0,45,0.00,,,0.00,HR-IXPWINDi_r2_v1.2.,2013-01-21 21:46:00,
2013-01-21 16:51:00,44.7,24.7,29.92,ENE,75,0.0,11.0,45,0.00,,,0.00,HR-IXPWINDi_r2_v1.2.,2013-01-21 21:51:00,
2013-01-21 16:56:00,44.6,24.6,29.91,SSE,156,0.0,11.0,45,0.00,,,0.00,HR-IXPWINDi_r2_v1.2.,2013-01-21 21:56:00,
2013-01-21 17:02:00,44.5,23.9,29.91,NNW,341,4.0,7.0,44,0.00,,,0.00,HR-IXPWINDi_r2_v1.2.,2013-01-21 22:02:00,
2013-01-21 17:07:00,44.5,23.9,29.91,WNW,301,4.0,7.0,44,0.00,,,0.00,HR-IXPWINDi_r2_v1.2.,2013-01-21 22:07:00,
2013-01-21 17:12:00,44.6,23.5,29.91,NW,320,2.0,6.0,43,0.00,,,0.00,HR-IXPWINDi_r2_v1.2.,2013-01-21 22:12:00,
2013-01-21 17:17:00,44.7,23.6,29.91,NW,325,1.0,10.0,43,0.00,,,0.00,HR-IXPWINDi_r2_v1.2.,2013-01-21 22:17:00,
2013-01-21 17:22:00,44.6,20.6,29.91,NNW,336,5.0,10.0,38,0.00,,,0.00,HR-IXPWINDi_r2_v1.2.,2013-01-21 22:22:00,
2013-01-21 17:27:00,44.4,17.8,29.91,SSW,201,5.0,13.0,34,0.00,,,0.00,HR-IXPWINDi_r2_v1.2.,2013-01-21 22:27:00,
2013-01-21 17:33:00,44.4,17.8,29.92,WNW,292,7.0,13.0,34,0.00,,,0.00,HR-IXPWINDi_r2_v1.2.,2013-01-21 22:33:00,
2013-01-21 17:38:00,44.2,15.5,29.92,NW,313,7.0,12.0,31,0.00,,,0.00,HR-IXPWINDi_r2_v1.2.,2013-01-21 22:38:00,
2013-01-21 17:43:00,44.1,16.1,29.93,NW,313,7.0,12.0,32,0.00,,,0.00,HR-IXPWINDi_r2_v1.2.,2013-01-21 22:43:00,
2013-01-21 17:48:00,43.9,15.2,29.92,NW,311,6.0,14.0,31,0.00,,,0.00,HR-IXPWINDi_r2_v1.2.,2013-01-21 22:48:00,
2013-01-21 17:53:00,43.8,15.1,29.93,North,5,3.0,14.0,31,0.00,,,0.00,HR-IXPWINDi_r2_v1.2.,2013-01-21 22:53:00,
2013-01-21 17:58:00,43.7,16.5,29.93,ENE,78,2.0,10.0,33,0.00,,,0.00,HR-IXPWINDi_r2_v1.2.,2013-01-21 22:58:00,
2013-01-21 18:04:00,43.4,14.8,29.93,NW,313,6.0,10.0,31,0.00,,,0.00,HR-IXPWINDi_r2_v1.2.,2013-01-21 23:04:00,
2013-01-21 18:09:00,43.1,16.0,29.94,West,274,3.0,10.0,33,0.00,,,0.00,HR-IXPWINDi_r2_v1.2.,2013-01-21 23:09:00,
2013-01-21 18:14:00,43.1,14.5,29.93,NNW,347,5.0,12.0,31,0.00,,,0.00,HR-IXPWINDi_r2_v1.2.,2013-01-21 23:14:00,
2013-01-21 18:19:00,43.0,15.2,29.93,WSW,252,6.0,16.0,32,0.00,,,0.00,HR-IXPWINDi_r2_v1.2.,2013-01-21 23:19:00,
2013-01-21 18:24:00,42.6,14.8,29.94,NW,310,2.0,16.0,32,0.00,,,0.00,HR-IXPWINDi_r2_v1.2.,2013-01-21 23:24:00,
2013-01-21 18:29:00,42.3,14.6,29.94,NNW,331,6.0,8.0,32,0.00,,,0.00,HR-IXPWINDi_r2_v1.2.,2013-01-21 23:29:00,
2013-01-21 18:35:00,41.9,16.3,29.94,WNW,303,2.0,8.0,35,0.00,,,0.00,HR-IXPWINDi_r2_v1.2.,2013-01-21 23:35:00,
2013-01-21 18:40:00,41.5,14.6,29.94,NNE,14,1.0,9.0,33,0.00,,,0.00,HR-IXPWINDi_r2_v1.2.,2013-01-21 23:40:00,
2013-01-21 18:45:00,41.6,14.6,29.94,NW,315,2.0,9.0,33,0.00,,,0.00,HR-IXPWINDi_r2_v1.2.,2013-01-21 23:45:00,
2013-01-21 18:50:00,41.4,14.5,29.94,WNW,300,0.0,9.0,33,0.00,,,0.00,HR-IXPWINDi_r2_v1.2.,2013-01-21 23:50:00,
2013-01-21 18:55:00,41.3,13.7,29.94,NW,313,0.0,11.0,32,0.00,,,0.00,HR-IXPWINDi_r2_v1.2.,2013-01-21 23:55:00,
2013-01-21 19:00:00,41.1,13.5,29.95,NW,312,3.0,11.0,32,0.00,,,0.00,HR-IXPWINDi_r2_v1.2.,2013-01-22 00:00:00,
2013-01-21 19:05:00,41.0,13.4,29.95,WNW,292,6.0,9.0,32,0.00,,,0.00,HR-IXPWINDi_r2_v1.2.,2013-01-22 00:05:00,
2013-01-21 19:11:00,40.8,13.2,29.95,NNE,18,5.0,10.0,32,0.00,,,0.00,HR-IXPWINDi_r2_v1.2.,2013-01-22 00:11:00,
2013-01-21 19:16:00,40.5,13.7,29.95,WNW,303,5.0,10.0,33,0.00,,,0.00,HR-IXPWINDi_r2_v1.2.,2013-01-22 00:16:00,
2013-01-21 19:21:00,40.5,14.4,29.95,NW,311,2.0,12.0,34,0.00,,,0.00,HR-IXPWINDi_r2_v1.2.,2013-01-22 00:21:00,
2013-01-21 19:26:00,40.1,13.3,29.96,NW,316,4.0,13.0,33,0.00,,,0.00,HR-IXPWINDi_r2_v1.2.,2013-01-22 00:26:00,
2013-01-21 19:31:00,40.0,12.5,29.95,NW,319,6.0,13.0,32,0.00,,,0.00,HR-IXPWINDi_r2_v1.2.,2013-01-22 00:31:00,
2013-01-21 19:36:00,39.9,13.1,29.95,West,266,8.0,11.0,33,0.00,,,0.00,HR-IXPWINDi_r2_v1.2.,2013-01-22 00:36:00,
2013-01-21 19:41:00,39.8,13.1,29.95,WSW,246,2.0,11.0,33,0.00,,,0.00,HR-IXPWINDi_r2_v1.2.,2013-01-22 00:41:00,
2013-01-21 19:46:00,39.6,12.2,29.95,WNW,289,3.0,12.0,32,0.00,,,0.00,HR-IXPWINDi_r2_v1.2.,2013-01-22 00:46:00,
2013-01-21 19:51:00,39.3,12.6,29.95,NW,321,2.0,12.0,33,0.00,,,0.00,HR-IXPWINDi_r2_v1.2.,2013-01-22 00:51:00,
2013-01-21 19:56:00,39.2,11.8,29.96,NNE,15,1.0,12.0,32,0.00,,,0.00,HR-IXPWINDi_r2_v1.2.,2013-01-22 00:56:00,
2013-01-21 20:01:00,38.9,11.6,29.95,NW,309,4.0,12.0,32,0.00,,,0.00,HR-IXPWINDi_r2_v1.2.,2013-01-22 01:01:00,
2013-01-21 20:06:00,38.7,11.4,29.95,NW,311,10.0,12.0,32,0.00,,,0.00,HR-IXPWINDi_r2_v1.2.,2013-01-22 01:06:00,
2013-01-21 20:12:00,38.5,11.2,29.96,NNW,327,9.0,11.0,32,0.00,,,0.00,HR-IXPWINDi_r2_v1.2.,2013-01-22 01:12:00,
2013-01-21 20:17:00,38.3,10.3,29.96,NNW,333,6.0,11.0,31,0.00,,,0.00,HR-IXPWINDi_r2_v1.2.,2013-01-22 01:17:00,
2013-01-21 20:22:00,38.2,11.0,29.96,WNW,294,2.0,10.0,32,0.00,,,0.00,HR-IXPWINDi_r2_v1.2.,2013-01-22 01:22:00,
2013-01-21 20:27:00,38.0,11.5,29.96,WNW,293,4.0,11.0,33,0.00,,,0.00,HR-IXPWINDi_r2_v1.2.,2013-01-22 01:27:00,
2013-01-21 20:33:00,37.7,11.2,29.96,SW,234,2.0,11.0,33,0.00,,,0.00,HR-IXPWINDi_r2_v1.2.,2013-01-22 01:33:00,
2013-01-21 20:38:00,37.5,11.0,29.96,NW,324,6.0,8.0,33,0.00,,,0.00,HR-IXPWINDi_r2_v1.2.,2013-01-22 01:38:00,
2013-01-21 20:43:00,37.4,11.0,29.96,NW,319,3.0,11.0,33,0.00,,,0.00,HR-IXPWINDi_r2_v1.2.,2013-01-22 01:43:00,
2013-01-21 20:49:00,37.3,11.5,29.96,West,269,1.0,12.0,34,0.00,,,0.00,HR-IXPWINDi_r2_v1.2.,2013-01-22 01:49:00,
2013-01-21 20:54:00,37.0,10.6,29.97,NNW,345,1.0,12.0,33,0.00,,,0.00,HR-IXPWINDi_r2_v1.2.,2013-01-22 01:54:00,
2013-01-21 20:59:00,36.8,11.1,29.97,NNW,346,7.0,12.0,34,0.00,,,0.00,HR-IXPWINDi_r2_v1.2.,2013-01-22 01:59:00,
2013-01-21 21:04:00,36.8,11.1,29.97,NW,315,5.0,12.0,34,0.00,,,0.00,HR-IXPWINDi_r2_v1.2.,2013-01-22 02:04:00,
2013-01-21 21:09:00,36.6,11.6,29.97,NW,323,2.0,12.0,35,0.00,,,0.00,HR-IXPWINDi_r2_v1.2.,2013-01-22 02:09:00,
2013-01-21 21:14:00,36.4,11.4,29.97,West,277,2.0,10.0,35,0.00,,,0.00,HR-IXPWINDi_r2_v1.2.,2013-01-22 02:14:00,
2013-01-21 21:20:00,36.3,11.3,29.97,NNE,25,2.0,12.0,35,0.00,,,0.00,HR-IXPWINDi_r2_v1.2.,2013-01-22 02:20:00,
2013-01-21 21:25:00,36.1,10.5,29.98,NNW,329,7.0,12.0,34,0.00,,,0.00,HR-IXPWINDi_r2_v1.2.,2013-01-22 02:25:00,
2013-01-21 21:30:00,35.9,10.9,29.98,NNW,327,6.0,9.0,35,0.00,,,0.00,HR-IXPWINDi_r2_v1.2.,2013-01-22 02:30:00,
2013-01-21 21:35:00,35.7,10.8,29.98,North,360,6.0,15.0,35,0.00,,,0.00,HR-IXPWINDi_r2_v1.2.,2013-01-22 02:35:00,
2013-01-21 21:40:00,35.4,9.9,29.97,NW,318,4.0,15.0,34,0.00,,,0.00,HR-IXPWINDi_r2_v1.2.,2013-01-22 02:40:00,
2013-01-21 21:45:00,35.2,9.0,29.98,NNW,328,5.0,13.0,33,0.00,,,0.00,HR-IXPWINDi_r2_v1.2.,2013-01-22 02:45:00,
2013-01-21 21:50:00,35.1,8.9,29.98,NW,311,8.0,13.0,33,0.00,,,0.00,HR-IXPWINDi_r2_v1.2.,2013-01-22 02:50:00,
2013-01-21 21:56:00,35.0,8.8,29.97,SE,130,6.0,10.0,33,0.00,,,0.00,HR-IXPWINDi_r2_v1.2.,2013-01-22 02:56:00,
2013-01-21 22:01:00,34.7,9.9,29.98,NW,323,0.0,16.0,35,0.00,,,0.00,HR-IXPWINDi_r2_v1.2.,2013-01-22 03:01:00,
2013-01-21 22:06:00,34.5,10.3,29.98,NE,54,2.0,16.0,36,0.00,,,0.00,HR-IXPWINDi_r2_v1.2.,2013-01-22 03:06:00,
2013-01-21 22:11:00,34.2,10.7,29.98,NW,325,3.0,8.0,37,0.00,,,0.00,HR-IXPWINDi_r2_v1.2.,2013-01-22 03:11:00,
2013-01-21 22:17:00,34.1,10.0,29.99,NNE,17,5.0,10.0,36,0.00,,,0.00,HR-IXPWINDi_r2_v1.2.,2013-01-22 03:17:00,
2013-01-21 22:22:00,33.8,9.7,29.99,West,259,3.0,10.0,36,0.00,,,0.00,HR-IXPWINDi_r2_v1.2.,2013-01-22 03:22:00,
2013-01-21 22:27:00,33.6,9.5,29.99,NW,319,1.0,9.0,36,0.00,,,0.00,HR-IXPWINDi_r2_v1.2.,2013-01-22 03:27:00,
2013-01-21 22:32:00,33.4,10.0,29.99,NW,312,3.0,10.0,37,0.00,,,0.00,HR-IXPWINDi_r2_v1.2.,2013-01-22 03:32:00,
2013-01-21 22:37:00,33.2,9.8,30.00,North,5,2.0,10.0,37,0.00,,,0.00,HR-IXPWINDi_r2_v1.2.,2013-01-22 03:37:00,
2013-01-21 22:42:00,33.2,9.8,30.00,NNW,332,4.0,11.0,37,0.00,,,0.00,HR-IXPWINDi_r2_v1.2.,2013-01-22 03:42:00,
2013-01-21 22:47:00,33.1,10.9,30.00,NW,310,6.0,13.0,39,0.00,,,0.00,HR-IXPWINDi_r2_v1.2.,2013-01-22 03:47:00,
2013-01-21 22:53:00,33.0,9.6,30.01,WNW,283,3.0,13.0,37,0.00,,,0.00,HR-IXPWINDi_r2_v1.2.,2013-01-22 03:53:00,
2013-01-21 22:58:00,32.8,9.4,30.00,NNE,13,2.0,18.0,37,0.00,,,0.00,HR-IXPWINDi_r2_v1.2.,2013-01-22 03:58:00,
2013-01-21 23:03:00,32.5,9.8,30.02,NW,317,2.0,18.0,38,0.00,,,0.00,HR-IXPWINDi_r2_v1.2.,2013-01-22 04:03:00,
2013-01-21 23:08:00,32.4,9.7,30.01,NNW,338,7.0,14.0,38,0.00,,,0.00,HR-IXPWINDi_r2_v1.2.,2013-01-22 04:08:00,
2013-01-21 23:13:00,32.1,9.4,30.01,WNW,292,3.0,13.0,38,0.00,,,0.00,HR-IXPWINDi_r2_v1.2.,2013-01-22 04:13:00,
2013-01-21 23:19:00,31.9,8.6,30.02,NW,313,5.0,10.0,37,0.00,,,0.00,HR-IXPWINDi_r2_v1.2.,2013-01-22 04:19:00,
2013-01-21 23:24:00,31.7,10.2,30.01,North,355,1.0,11.0,40,0.00,,,0.00,HR-IXPWINDi_r2_v1.2.,2013-01-22 04:24:00,
2013-01-21 23:29:00,31.4,9.9,30.01,NW,321,4.0,11.0,40,0.00,,,0.00,HR-IXPWINDi_r2_v1.2.,2013-01-22 04:29:00,
2013-01-21 23:34:00,31.3,9.8,30.01,NW,323,1.0,11.0,40,0.00,,,0.00,HR-IXPWINDi_r2_v1.2.,2013-01-22 04:34:00,
2013-01-21 23:39:00,31.1,10.2,30.01,NW,311,5.0,11.0,41,0.00,,,0.00,HR-IXPWINDi_r2_v1.2.,2013-01-22 04:39:00,
2013-01-21 23:44:00,30.9,10.0,30.02,NW,316,2.0,12.0,41,0.00,,,0.00,HR-IXPWINDi_r2_v1.2.,2013-01-22 04:44:00,
2013-01-21 23:50:00,30.8,9.9,30.02,WNW,302,0.0,12.0,41,0.00,,,0.00,HR-IXPWINDi_r2_v1.2.,2013-01-22 04:50:00,
2013-01-21 23:55:00,30.7,9.8,30.02,North,355,3.0,11.0,41,0.00,,,0.00,HR-IXPWINDi_r2_v1.2.,2013-01-22 04:55:00,